| time (UTC) | temp C | wind direction | speed KPH | gust KPH | rain 1hr cm | rain 24hr cm | rain mn cm | humidity % | barometer mb |
| 20260510015343 | 8 | 231 | 0.0 | 4.8 | 0.00 | 1.12 | 1.12 | 94 | 1005.2 |
| 20260510014840 | 8 | 226 | 0.0 | 4.8 | 0.00 | 1.12 | 1.12 | 94 | 1005.3 |
| 20260510014330 | 8 | 255 | 1.6 | 4.8 | 0.00 | 1.12 | 1.12 | 94 | 1005.2 |
| 20260510013848 | 8 | 255 | 1.6 | 8.0 | 0.00 | 1.12 | 1.12 | 94 | 1005.2 |
| 20260510013332 | 9 | 175 | 0.0 | 8.0 | 0.03 | 1.12 | 1.12 | 94 | 1005.1 |
| 20260510012851 | 9 | 293 | 1.6 | 4.8 | 0.05 | 1.12 | 1.12 | 94 | 1004.9 |
| 20260510012334 | 9 | 178 | 1.6 | 6.4 | 0.08 | 1.12 | 1.12 | 94 | 1004.9 |
| 20260510011837 | 9 | 178 | 1.6 | 9.7 | 0.13 | 1.12 | 1.12 | 94 | 1004.8 |
| 20260510011340 | 9 | 124 | 1.6 | 11.3 | 0.18 | 1.12 | 1.12 | 94 | 1004.6 |
| 20260510010907 | 9 | 190 | 6.4 | 14.5 | 0.23 | 1.12 | 1.12 | 94 | 1004.4 |
| 20260510010409 | 9 | 227 | 3.2 | 14.5 | 0.25 | 1.12 | 1.12 | 94 | 1004.5 |
| 20260510005852 | 9 | 66 | 6.4 | 14.5 | 0.36 | 1.12 | 1.12 | 94 | 1004.4 |
| 20260510005333 | 9 | 223 | 4.8 | 22.5 | 0.41 | 1.12 | 1.12 | 94 | 1004.5 |
| 20260510004841 | 9 | 180 | 4.8 | 22.5 | 0.51 | 1.12 | 1.12 | 94 | 1004.4 |
| 20260510004347 | 9 | 200 | 6.4 | 11.3 | 0.58 | 1.12 | 1.12 | 94 | 1004.3 |
| 20260510003839 | 9 | 164 | 4.8 | 8.0 | 0.61 | 1.12 | 1.12 | 94 | 1004.4 |
| 20260510003334 | 9 | 171 | 3.2 | 8.0 | 0.64 | 1.09 | 1.09 | 93 | 1004.6 |
| 20260510002853 | 9 | 161 | 3.2 | 9.7 | 0.66 | 1.07 | 1.07 | 93 | 1005.1 |
| 20260510002401 | 9 | 148 | 3.2 | 16.1 | 0.71 | 1.04 | 1.04 | 93 | 1004.9 |
| 20260510001834 | 9 | 242 | 4.8 | 24.1 | 0.76 | 0.99 | 0.99 | 93 | 1005.4 |
| 20260510001334 | 9 | 158 | 4.8 | 24.1 | 0.86 | 0.91 | 0.91 | 93 | 1005.7 |
| 20260510000852 | 9 | 197 | 6.4 | 17.7 | 0.89 | 0.89 | 0.89 | 93 | 1005.7 |
| 20260510000353 | 9 | 129 | 3.2 | 16.1 | 0.86 | 0.86 | 0.86 | 92 | 1005.6 |
| 20260509235830 | 9 | 209 | 4.8 | 9.7 | 0.76 | 0.76 | 0.76 | 92 | 1005.7 |
| 20260509235351 | 9 | 154 | 3.2 | 9.7 | 0.71 | 0.71 | 0.71 | 92 | 1005.6 |
| 20260509234846 | 9 | 180 | 3.2 | 11.3 | 0.61 | 0.61 | 0.61 | 91 | 1005.5 |
| 20260509234344 | 9 | 250 | 3.2 | 11.3 | 0.53 | 0.53 | 0.53 | 90 | 1005.3 |
| 20260509233842 | 9 | 259 | 4.8 | 12.9 | 0.51 | 0.51 | 0.51 | 89 | 1005.0 |
| 20260509233358 | 10 | 11 | 4.8 | 19.3 | 0.46 | 0.46 | 0.46 | 88 | 1004.8 |
| 20260509232918 | 10 | 148 | 4.8 | 19.3 | 0.38 | 0.38 | 0.38 | 86 | 1004.4 |
| 20260509232340 | 11 | 233 | 9.7 | 19.3 | 0.30 | 0.30 | 0.30 | 83 | 1004.5 |
| 20260509231836 | 12 | 91 | 8.0 | 22.5 | 0.23 | 0.23 | 0.23 | 78 | 1004.7 |
| 20260509231340 | 14 | 84 | 6.4 | 38.6 | 0.00 | 0.00 | 0.00 | 70 | 1004.6 |
| 20260509230841 | 15 | 227 | 12.9 | 38.6 | 0.00 | 0.00 | 0.00 | 67 | 1003.7 |
| 20260509230332 | 15 | 236 | 6.4 | 17.7 | 0.00 | 0.00 | 0.00 | 67 | 1002.6 |
| 20260509225842 | 15 | 249 | 6.4 | 16.1 | 0.00 | 0.00 | 0.00 | 66 | 1002.6 |
| 20260509225345 | 15 | 254 | 4.8 | 19.3 | 0.00 | 0.00 | 0.00 | 65 | 1002.8 |
| 20260509224831 | 16 | 249 | 6.4 | 19.3 | 0.00 | 0.00 | 0.00 | 65 | 1003.0 |
| 20260509224359 | 16 | 238 | 6.4 | 14.5 | 0.00 | 0.00 | 0.00 | 65 | 1002.8 |
| 20260509223838 | 16 | 49 | 4.8 | 11.3 | 0.00 | 0.00 | 0.00 | 66 | 1002.8 |
| 20260509223339 | 16 | 252 | 4.8 | 14.5 | 0.00 | 0.00 | 0.00 | 65 | 1002.7 |
| 20260509222845 | 16 | 251 | 8.0 | 14.5 | 0.00 | 0.00 | 0.00 | 65 | 1002.4 |
| 20260509222409 | 16 | 234 | 3.2 | 12.9 | 0.00 | 0.00 | 0.00 | 65 | 1002.6 |
| 20260509221842 | 16 | 182 | 3.2 | 14.5 | 0.00 | 0.00 | 0.00 | 64 | 1002.6 |
| 20260509221402 | 16 | 206 | 3.2 | 14.5 | 0.00 | 0.00 | 0.00 | 64 | 1002.6 |
| 20260509220836 | 16 | 207 | 3.2 | 16.1 | 0.00 | 0.00 | 0.00 | 63 | 1002.5 |
| 20260509220343 | 16 | 88 | 6.4 | 17.7 | 0.00 | 0.00 | 0.00 | 62 | 1002.6 |
| 20260509215832 | 16 | 210 | 6.4 | 17.7 | 0.00 | 0.00 | 0.00 | 62 | 1002.7 |
| 20260509215344 | 16 | 244 | 6.4 | 16.1 | 0.00 | 0.00 | 0.00 | 62 | 1002.8 |
| 20260509214853 | 16 | 73 | 4.8 | 8.0 | 0.00 | 0.00 | 0.00 | 64 | 1002.7 |
| 20260509214347 | 16 | 205 | 1.6 | 17.7 | 0.00 | 0.00 | 0.00 | 64 | 1002.7 |
| 20260509213842 | 16 | 172 | 6.4 | 17.7 | 0.00 | 0.00 | 0.00 | 63 | 1002.8 |
| 20260509213347 | 16 | 234 | 8.0 | 16.1 | 0.00 | 0.00 | 0.00 | 60 | 1002.9 |
| 20260509212844 | 16 | 225 | 8.0 | 16.1 | 0.00 | 0.00 | 0.00 | 59 | 1002.9 |
| 20260509212406 | 17 | 242 | 6.4 | 16.1 | 0.00 | 0.00 | 0.00 | 61 | 1003.0 |
| 20260509211846 | 17 | 221 | 6.4 | 16.1 | 0.00 | 0.00 | 0.00 | 63 | 1002.8 |
| 20260509211340 | 17 | 283 | 4.8 | 17.7 | 0.00 | 0.00 | 0.00 | 62 | 1002.8 |
| 20260509210849 | 17 | 120 | 4.8 | 17.7 | 0.00 | 0.00 | 0.00 | 60 | 1002.8 |
| 20260509210357 | 17 | 97 | 6.4 | 17.7 | 0.00 | 0.00 | 0.00 | 62 | 1002.7 |
| 20260509205855 | 17 | 125 | 6.4 | 19.3 | 0.00 | 0.00 | 0.00 | 60 | 1002.7 |
| 20260509205336 | 17 | 219 | 8.0 | 20.9 | 0.00 | 0.00 | 0.00 | 62 | 1002.8 |
| 20260509204839 | 16 | 194 | 4.8 | 14.5 | 0.00 | 0.00 | 0.00 | 63 | 1002.8 |
| 20260509204359 | 16 | 221 | 4.8 | 11.3 | 0.00 | 0.00 | 0.00 | 60 | 1002.9 |
| 20260509203901 | 16 | 192 | 3.2 | 12.9 | 0.00 | 0.00 | 0.00 | 60 | 1003.0 |
| 20260509203332 | 17 | 258 | 1.6 | 14.5 | 0.00 | 0.00 | 0.00 | 61 | 1003.1 |
| 20260509202857 | 16 | 336 | 3.2 | 11.3 | 0.00 | 0.00 | 0.00 | 62 | 1003.1 |
| 20260509202337 | 16 | 286 | 4.8 | 16.1 | 0.00 | 0.00 | 0.00 | 62 | 1003.2 |
| 20260509201901 | 16 | 270 | 6.4 | 16.1 | 0.00 | 0.00 | 0.00 | 61 | 1003.2 |
| 20260509201343 | 16 | 156 | 4.8 | 14.5 | 0.00 | 0.00 | 0.00 | 61 | 1003.2 |
| 20260509200843 | 17 | 223 | 4.8 | 22.5 | 0.00 | 0.00 | 0.00 | 60 | 1003.3 |
| 20260509200350 | 18 | 251 | 8.0 | 22.5 | 0.00 | 0.00 | 0.00 | 59 | 1003.3 |
| 20260509195840 | 18 | 267 | 11.3 | 19.3 | 0.00 | 0.00 | 0.00 | 60 | 1003.3 |
| 20260509195340 | 17 | 231 | 8.0 | 20.9 | 0.00 | 0.00 | 0.00 | 61 | 1003.2 |
| 20260509194859 | 17 | 304 | 4.8 | 20.9 | 0.00 | 0.00 | 0.00 | 58 | 1003.2 |
| 20260509194341 | 17 | 130 | 8.0 | 22.5 | 0.00 | 0.00 | 0.00 | 60 | 1003.4 |
| 20260509193830 | 17 | 161 | 6.4 | 16.1 | 0.00 | 0.00 | 0.00 | 60 | 1003.6 |
| 20260509193411 | 17 | 198 | 3.2 | 14.5 | 0.00 | 0.00 | 0.00 | 64 | 1003.7 |
| 20260509192832 | 17 | 148 | 6.4 | 19.3 | 0.00 | 0.00 | 0.00 | 60 | 1003.7 |
| 20260509192354 | 18 | 238 | 6.4 | 12.9 | 0.00 | 0.00 | 0.00 | 61 | 1004.0 |
| 20260509191842 | 17 | 234 | 3.2 | 22.5 | 0.00 | 0.00 | 0.00 | 65 | 1004.1 |
| 20260509191351 | 17 | 317 | 9.7 | 22.5 | 0.00 | 0.00 | 0.00 | 64 | 1004.0 |
| 20260509190847 | 16 | 116 | 6.4 | 17.7 | 0.00 | 0.00 | 0.00 | 62 | 1004.1 |
| 20260509190330 | 16 | 140 | 6.4 | 17.7 | 0.00 | 0.00 | 0.00 | 62 | 1004.1 |
| 20260509185856 | 17 | 149 | 4.8 | 16.1 | 0.00 | 0.00 | 0.00 | 59 | 1004.1 |
| 20260509185354 | 17 | 262 | 6.4 | 19.3 | 0.00 | 0.00 | 0.00 | 61 | 1004.0 |
| 20260509184840 | 17 | 180 | 8.0 | 19.3 | 0.00 | 0.00 | 0.00 | 63 | 1003.9 |
| 20260509184331 | 17 | 191 | 6.4 | 17.7 | 0.00 | 0.00 | 0.00 | 59 | 1003.9 |
| 20260509183834 | 17 | 274 | 9.7 | 17.7 | 0.00 | 0.00 | 0.00 | 59 | 1004.0 |
| 20260509183351 | 17 | 205 | 9.7 | 16.1 | 0.00 | 0.00 | 0.00 | 64 | 1003.9 |
| 20260509182849 | 17 | 65 | 4.8 | 22.5 | 0.00 | 0.00 | 0.00 | 59 | 1004.0 |
| 20260509182346 | 17 | 125 | 6.4 | 22.5 | 0.00 | 0.00 | 0.00 | 62 | 1004.0 |
| 20260509181830 | 17 | 251 | 6.4 | 16.1 | 0.00 | 0.00 | 0.00 | 60 | 1004.0 |
| 20260509181332 | 16 | 79 | 3.2 | 16.1 | 0.00 | 0.00 | 0.00 | 67 | 1004.0 |
| 20260509180845 | 16 | 200 | 4.8 | 16.1 | 0.00 | 0.00 | 0.00 | 66 | 1004.1 |
| 20260509180343 | 16 | 224 | 6.4 | 14.5 | 0.00 | 0.00 | 0.00 | 65 | 1004.1 |
| 20260509175844 | 16 | 212 | 4.8 | 16.1 | 0.00 | 0.00 | 0.00 | 63 | 1004.2 |
| 20260509175340 | 17 | 221 | 8.0 | 16.1 | 0.00 | 0.00 | 0.00 | 60 | 1004.2 |
| 20260509174836 | 17 | 218 | 8.0 | 22.5 | 0.00 | 0.00 | 0.00 | 62 | 1004.1 |
| 20260509174334 | 17 | 179 | 6.4 | 16.1 | 0.00 | 0.00 | 0.00 | 68 | 1004.3 |
| 20260509173854 | 16 | 298 | 6.4 | 17.7 | 0.00 | 0.00 | 0.00 | 70 | 1004.4 |
| 20260509173346 | 15 | 231 | 6.4 | 17.7 | 0.00 | 0.00 | 0.00 | 69 | 1004.4 |
| 20260509172907 | 15 | 237 | 6.4 | 22.5 | 0.00 | 0.00 | 0.00 | 70 | 1004.6 |
| 20260509172352 | 16 | 260 | 9.7 | 22.5 | 0.00 | 0.00 | 0.00 | 67 | 1004.6 |
| 20260509171832 | 16 | 274 | 6.4 | 17.7 | 0.00 | 0.00 | 0.00 | 69 | 1004.5 |
| 20260509171332 | 16 | 235 | 4.8 | 16.1 | 0.00 | 0.00 | 0.00 | 66 | 1004.4 |
| 20260509170841 | 16 | 254 | 6.4 | 16.1 | 0.00 | 0.00 | 0.00 | 68 | 1004.6 |
| 20260509170359 | 15 | 213 | 6.4 | 17.7 | 0.00 | 0.00 | 0.00 | 72 | 1004.7 |
| 20260509165834 | 15 | 135 | 9.7 | 17.7 | 0.00 | 0.00 | 0.00 | 69 | 1004.8 |
| 20260509165344 | 16 | 213 | 6.4 | 14.5 | 0.00 | 0.00 | 0.00 | 69 | 1004.7 |
| 20260509164850 | 15 | 355 | 4.8 | 16.1 | 0.00 | 0.00 | 0.00 | 70 | 1004.7 |
| 20260509164332 | 15 | 240 | 8.0 | 17.7 | 0.00 | 0.00 | 0.00 | 70 | 1004.8 |
| 20260509163831 | 15 | 163 | 4.8 | 17.7 | 0.00 | 0.00 | 0.00 | 71 | 1004.7 |
| 20260509163346 | 15 | 216 | 4.8 | 17.7 | 0.00 | 0.00 | 0.00 | 73 | 1004.7 |
| 20260509162840 | 15 | 227 | 9.7 | 16.1 | 0.00 | 0.00 | 0.00 | 72 | 1004.8 |
| 20260509162432 | 15 | 43 | 4.8 | 19.3 | 0.00 | 0.00 | 0.00 | 70 | 1005.0 |
| 20260509161839 | 15 | 200 | 8.0 | 19.3 | 0.00 | 0.00 | 0.00 | 74 | 1004.9 |
| 20260509161350 | 15 | 246 | 6.4 | 14.5 | 0.00 | 0.00 | 0.00 | 73 | 1005.0 |
| 20260509160857 | 14 | 258 | 4.8 | 16.1 | 0.00 | 0.00 | 0.00 | 76 | 1005.1 |
| 20260509160416 | 14 | 223 | 11.3 | 16.1 | 0.00 | 0.00 | 0.00 | 74 | 1005.2 |
| 20260509155841 | 13 | 265 | 8.0 | 16.1 | 0.00 | 0.00 | 0.00 | 77 | 1005.1 |
| 20260509155345 | 13 | 244 | 8.0 | 16.1 | 0.00 | 0.00 | 0.00 | 76 | 1005.2 |
| 20260509154832 | 13 | 243 | 4.8 | 17.7 | 0.00 | 0.00 | 0.00 | 77 | 1005.3 |
| 20260509154350 | 13 | 252 | 8.0 | 17.7 | 0.00 | 0.00 | 0.00 | 76 | 1005.4 |
| 20260509153857 | 13 | 244 | 8.0 | 14.5 | 0.00 | 0.00 | 0.00 | 77 | 1005.3 |
| 20260509153406 | 13 | 268 | 6.4 | 16.1 | 0.00 | 0.00 | 0.00 | 78 | 1005.5 |
| 20260509152839 | 13 | 242 | 6.4 | 16.1 | 0.00 | 0.00 | 0.00 | 79 | 1005.4 |
| 20260509152337 | 13 | 246 | 8.0 | 16.1 | 0.00 | 0.00 | 0.00 | 79 | 1005.3 |
| 20260509151839 | 13 | 183 | 1.6 | 14.5 | 0.00 | 0.00 | 0.00 | 79 | 1005.3 |
| 20260509151334 | 13 | 190 | 3.2 | 17.7 | 0.00 | 0.00 | 0.00 | 80 | 1005.3 |
| 20260509150856 | 13 | 230 | 4.8 | 17.7 | 0.00 | 0.00 | 0.00 | 79 | 1005.2 |
| 20260509150336 | 13 | 180 | 3.2 | 11.3 | 0.00 | 0.00 | 0.00 | 81 | 1005.3 |
| 20260509145838 | 12 | 238 | 4.8 | 9.7 | 0.00 | 0.00 | 0.00 | 81 | 1005.5 |
| 20260509145414 | 12 | 223 | 3.2 | 8.0 | 0.00 | 0.00 | 0.00 | 81 | 1005.4 |
| 20260509144849 | 12 | 214 | 3.2 | 8.0 | 0.00 | 0.00 | 0.00 | 82 | 1005.5 |
| 20260509144342 | 12 | 242 | 4.8 | 12.9 | 0.00 | 0.00 | 0.00 | 82 | 1005.4 |
| 20260509143844 | 12 | 219 | 3.2 | 12.9 | 0.00 | 0.00 | 0.00 | 82 | 1005.4 |
| 20260509143406 | 12 | 20 | 3.2 | 16.1 | 0.00 | 0.00 | 0.00 | 82 | 1005.5 |
| 20260509142844 | 12 | 243 | 4.8 | 16.1 | 0.00 | 0.00 | 0.00 | 82 | 1005.5 |
| 20260509142346 | 12 | 135 | 3.2 | 12.9 | 0.00 | 0.00 | 0.00 | 83 | 1005.4 |
| 20260509141849 | 12 | 159 | 4.8 | 12.9 | 0.00 | 0.00 | 0.00 | 83 | 1005.4 |
| 20260509141352 | 12 | 216 | 3.2 | 8.0 | 0.00 | 0.00 | 0.00 | 83 | 1005.5 |
| 20260509140837 | 12 | 239 | 1.6 | 12.9 | 0.00 | 0.00 | 0.00 | 83 | 1005.5 |
| 20260509140352 | 12 | 9 | 3.2 | 12.9 | 0.00 | 0.00 | 0.00 | 82 | 1005.6 |
| 20260509135852 | 12 | 249 | 4.8 | 11.3 | 0.00 | 0.00 | 0.00 | 82 | 1005.6 |
| 20260509135350 | 12 | 145 | 6.4 | 22.5 | 0.00 | 0.00 | 0.00 | 83 | 1005.6 |
| 20260509134853 | 12 | 245 | 3.2 | 22.5 | 0.00 | 0.00 | 0.00 | 85 | 1005.6 |
| 20260509134407 | 11 | 161 | 3.2 | 12.9 | 0.00 | 0.00 | 0.00 | 85 | 1005.6 |
| 20260509133845 | 11 | 212 | 1.6 | 12.9 | 0.00 | 0.00 | 0.00 | 83 | 1005.6 |
| 20260509133351 | 12 | 154 | 4.8 | 11.3 | 0.00 | 0.00 | 0.00 | 84 | 1005.7 |
| 20260509132856 | 11 | 237 | 3.2 | 12.9 | 0.00 | 0.00 | 0.00 | 84 | 1005.7 |
| 20260509132344 | 12 | 159 | 3.2 | 14.5 | 0.00 | 0.00 | 0.00 | 85 | 1005.7 |
| 20260509131837 | 11 | 198 | 4.8 | 14.5 | 0.00 | 0.00 | 0.00 | 86 | 1005.8 |
| 20260509131343 | 11 | 178 | 6.4 | 14.5 | 0.00 | 0.00 | 0.00 | 88 | 1005.8 |
| 20260509130859 | 11 | 223 | 6.4 | 14.5 | 0.00 | 0.00 | 0.00 | 88 | 1006.0 |
| 20260509130336 | 11 | 145 | 3.2 | 11.3 | 0.00 | 0.00 | 0.00 | 89 | 1006.1 |
| 20260509125403 | 10 | 254 | 6.4 | 12.9 | 0.00 | 0.03 | 0.00 | 89 | 1006.1 |
| 20260509124846 | 10 | 259 | 1.6 | 8.0 | 0.00 | 0.03 | 0.00 | 90 | 1006.0 |
| 20260509124411 | 10 | 269 | 3.2 | 8.0 | 0.00 | 0.03 | 0.00 | 90 | 1006.1 |
| 20260509123851 | 10 | 274 | 1.6 | 8.0 | 0.00 | 0.03 | 0.00 | 90 | 1006.2 |